1515632400.33,15010,11.63,72918.0,-5.49,-6.47,-6.59,0,*52
1515632401.55,15011,11.63,72918.8,-5.45,-6.43,-6.51,0,*53
1515632402.79,15012,11.63,72920.5,-5.45,-6.51,-6.55,0,*57
1515632404.01,15013,11.63,72916.5,-5.49,-6.55,-6.59,0,*52
1515632405.23,15014,11.56,72916.3,-5.49,-6.55,-6.69,0,*56
1515632406.46,15015,11.63,72918.5,-5.45,-6.43,-6.55,0,*53
1515632407.69,15016,11.63,72916.8,-5.45,-6.43,-6.51,0,*54
1515632408.92,15017,11.63,72916.3,-5.45,-6.51,-6.55,0,*52
1515632410.14,15018,11.63,72918.0,-5.49,-6.59,-6.59,0,*55
1515632411.37,15019,11.63,72924.3,-5.49,-6.55,-6.59,0,*58
1515632412.59,15020,11.63,72922.0,-5.49,-6.59,-6.55,0,*52
1515632413.82,15021,11.63,72916.8,-5.45,-6.51,-6.51,0,*53
1515632415.08,15022,11.63,72918.3,-5.45,-6.51,-6.63,0,*51
1515632416.3,15023,11.63,72914.3,-5.49,-6.59,-6.59,0,*5D
1515632417.54,15024,11.63,72912.5,-5.45,-6.51,-6.51,0,*56
1515632418.77,15025,11.63,72916.8,-5.45,-6.43,-6.51,0,*54
1515632419.99,15026,11.63,72912.3,-5.45,-6.43,-6.51,0,*57
1515632421.23,15027,11.63,72916.0,-5.45,-6.51,-6.43,0,*56
1515632422.45,15028,11.63,72918.5,-5.49,-6.47,-6.55,0,*55
1515632423.67,15029,11.63,72916.0,-5.45,-6.43,-6.43,0,*5B
1515632424.91,15030,11.63,72914.0,-5.45,-6.51,-6.51,0,*53
1515632426.14,15031,11.56,72916.3,-5.45,-6.43,-6.43,0,*52
1515632427.36,15032,11.63,72916.5,-5.45,-6.39,-6.51,0,*5F
1515632428.59,15033,11.63,72920.0,-5.45,-6.43,-6.55,0,*57
1515632429.81,15034,11.63,72922.3,-5.45,-6.43,-6.55,0,*50
1515632431.04,15035,11.63,72918.5,-5.45,-6.43,-6.55,0,*51
1515632432.28,15036,11.63,72918.5,-5.45,-6.51,-6.51,0,*55
1515632433.51,15037,11.63,72920.0,-5.45,-6.51,-6.51,0,*54
1515632434.74,15038,11.63,72916.8,-5.45,-6.51,-6.55,0,*5F
1515632435.97,15039,11.63,72920.3,-5.45,-6.51,-6.55,0,*5E
1515632437.2,15040,11.63,72922.3,-5.45,-6.39,-6.51,0,*5A
1515632438.42,15041,11.63,72926.0,-5.45,-6.43,-6.51,0,*56
1515632439.68,15042,11.63,72916.0,-5.45,-6.43,-6.63,0,*54
1515632440.9,15043,11.56,72914.5,-5.45,-6.43,-6.51,0,*54
1515632442.11,15044,11.63,72926.5,-5.43,-6.35,-6.47,0,*53
1515632443.33,15045,11.63,72924.3,-5.45,-6.39,-6.51,0,*5F
1515632444.56,15046,11.63,72928.3,-5.45,-6.43,-6.43,0,*52
1515632445.79,15047,11.56,72922.3,-5.45,-6.43,-6.51,0,*50
1515632447.01,15048,11.63,72920.0,-5.43,-6.27,-6.39,0,*55
1515632448.22,15049,11.63,72930.5,-5.43,-6.27,-6.39,0,*54
1515632449.45,15050,11.63,72928.3,-5.45,-6.39,-6.43,0,*58
1515632450.65,15051,11.63,72930.5,-5.43,-6.35,-6.35,0,*52
1515632451.88,15052,11.63,72928.8,-5.45,-6.31,-6.43,0,*52
1515632453.11,15053,11.63,72922.8,-5.45,-6.39,-6.51,0,*58
1515632454.31,15054,11.63,72918.0,-5.43,-6.35,-6.39,0,*5B
1515632455.53,15055,11.63,72920.8,-5.45,-6.39,-6.43,0,*5D
1515632456.73,15056,11.63,72930.3,-5.43,-6.35,-6.39,0,*59
1515632457.96,15057,11.63,72918.3,-5.45,-6.39,-6.43,0,*5F
1515632459.18,15058,11.63,72924.0,-5.45,-6.39,-6.51,0,*53
1515632460.38,15059,11.63,72920.8,-5.43,-6.35,-6.39,0,*56
1515632461.61,15060,11.63,72926.8,-5.45,-6.39,-6.51,0,*58
1515632462.8,15061,11.63,72928.8,-5.43,-6.47,-6.39,0,*58
1515632463.99,15062,11.63,72928.5,-5.43,-6.39,-6.39,0,*52
1515632465.19,15063,11.63,72930.8,-5.43,-6.39,-6.39,0,*53
1515632466.39,15064,11.63,72932.5,-5.43,-6.47,-6.47,0,*54
1515632467.58,15065,11.63,72930.0,-5.43,-6.39,-6.47,0,*5C
1515632468.82,15066,11.63,72930.3,-5.45,-6.51,-6.51,0,*50
1515632470.02,15067,11.63,72932.3,-5.43,-6.47,-6.47,0,*57
1515632471.21,15068,11.63,72934.8,-5.43,-6.47,-6.51,0,*5F
1515632472.41,15069,11.63,72930.5,-5.43,-6.39,-6.51,0,*57
1515632473.61,15070,11.63,72928.8,-5.43,-6.59,-6.51,0,*59
1515632474.81,15071,11.63,72926.3,-5.43,-6.39,-6.59,0,*56
1515632476.0,15072,11.63,72930.0,-5.43,-6.39,-6.39,0,*53
1515632477.2,15073,11.63,72930.0,-5.43,-6.39,-6.47,0,*5B
1515632478.4,15074,11.63,72930.5,-5.43,-6.39,-6.47,0,*5C
1515632479.63,15075,11.56,72926.5,-5.45,-6.43,-6.55,0,*55
1515632480.82,15076,11.63,72930.8,-5.43,-6.39,-6.51,0,*59
1515632482.02,15077,11.63,72930.0,-5.43,-6.39,-6.47,0,*5F
1515632483.22,15078,11.63,72928.0,-5.43,-6.47,-6.47,0,*59
1515632484.41,15079,11.63,72930.0,-5.43,-6.39,-6.39,0,*58
1515632485.61,15080,11.63,72926.0,-5.43,-6.35,-6.39,0,*52
1515632486.82,15081,11.63,72928.0,-5.43,-6.35,-6.35,0,*5F
1515632488.02,15082,11.63,72932.5,-5.43,-6.35,-6.35,0,*5C
1515632489.23,15083,11.56,72926.3,-5.43,-6.35,-6.47,0,*58
1515632490.42,15084,11.63,72928.3,-5.43,-6.39,-6.47,0,*53
1515632491.62,15085,11.56,72926.0,-5.43,-6.47,-6.51,0,*5C
1515632492.82,15086,11.63,72924.5,-5.43,-6.47,-6.51,0,*5F
1515632494.02,15087,11.63,72924.5,-5.43,-6.39,-6.51,0,*57
1515632495.24,15088,11.63,72922.0,-5.41,-6.39,-6.47,0,*5D
1515632496.46,15089,11.63,72922.0,-5.41,-6.39,-6.39,0,*55
1515632497.7,15090,11.63,72920.5,-5.41,-6.35,-6.47,0,*58
1515632498.92,15091,11.63,72920.8,-5.41,-6.39,-6.47,0,*55
1515632500.14,15092,11.63,72924.3,-5.43,-6.27,-6.39,0,*52
1515632501.34,15093,11.63,72922.0,-5.43,-6.35,-6.47,0,*59
1515632502.56,15094,11.63,72916.5,-5.43,-6.27,-6.39,0,*54
1515632503.78,15095,11.63,72918.0,-5.43,-6.27,-6.39,0,*55
1515632505.0,15096,11.63,72922.0,-5.45,-6.39,-6.43,0,*52
1515632506.22,15097,11.63,72914.5,-5.43,-6.27,-6.47,0,*5E
1515632507.44,15098,11.63,72922.0,-5.43,-6.27,-6.39,0,*58
1515632508.68,15099,11.63,72920.8,-5.41,-6.27,-6.39,0,*5B
1515632509.93,15100,11.63,72920.8,-5.41,-6.27,-6.35,0,*56
1515632511.15,15101,11.63,72922.5,-5.43,-6.27,-6.35,0,*55
1515632512.4,15102,11.63,72920.5,-5.41,-6.27,-6.35,0,*54
1515632513.65,15103,11.63,72924.0,-5.41,-6.27,-6.35,0,*55
1515632514.9,15104,11.63,72926.5,-5.41,-6.27,-6.35,0,*52
1515632516.12,15105,11.63,72922.5,-5.43,-6.27,-6.35,0,*51
1515632517.36,15106,11.63,72920.0,-5.43,-6.23,-6.27,0,*55
1515632518.64,15107,11.63,72920.0,-5.41,-6.19,-6.27,0,*5F
1515632519.91,15108,11.63,72926.5,-5.41,-6.23,-6.27,0,*59
1515632521.18,15109,11.63,72926.8,-5.41,-6.23,-6.27,0,*58
1515632522.43,15110,11.63,72924.8,-5.41,-6.27,-6.35,0,*57
1515632523.66,15111,11.63,72922.5,-5.41,-6.35,-6.35,0,*55
1515632524.91,15112,11.63,72920.8,-5.41,-6.27,-6.31,0,*51
1515632526.15,15113,11.63,72922.3,-5.39,-6.23,-6.23,0,*58
1515632527.4,15114,11.63,72922.8,-5.39,-6.19,-6.23,0,*56
1515632528.67,15115,11.63,72922.5,-5.41,-6.19,-6.23,0,*58
1515632529.91,15116,11.63,72926.8,-5.39,-6.19,-6.23,0,*54
1515632531.13,15117,11.63,72924.8,-5.39,-6.13,-6.23,0,*5F
1515632532.38,15118,11.63,72926.5,-5.39,-6.19,-6.23,0,*5A
1515632533.6,15119,11.63,72924.8,-5.35,-6.13,-6.19,0,*54
1515632534.82,15120,11.63,72920.5,-5.35,-6.13,-6.27,0,*53
1515632536.06,15121,11.63,72924.8,-5.39,-6.23,-6.23,0,*59
1515632537.28,15122,11.63,72922.5,-5.39,-6.19,-6.31,0,*50
1515632538.53,15123,11.63,72924.3,-5.39,-6.19,-6.23,0,*52
1515632539.77,15124,11.63,72924.8,-5.35,-6.19,-6.27,0,*5D
1515632541.02,15125,11.63,72926.3,-5.35,-6.19,-6.19,0,*51
1515632542.22,15126,11.63,72928.0,-5.39,-6.31,-6.35,0,*5A
1515632543.42,15127,11.63,72932.3,-5.39,-6.35,-6.43,0,*5E
1515632544.64,15128,11.63,72928.5,-5.39,-6.23,-6.35,0,*57
1515632545.84,15129,11.63,72932.0,-5.39,-6.31,-6.35,0,*55
1515632547.09,15130,11.63,72926.3,-5.35,-6.19,-6.19,0,*55
1515632548.34,15131,11.63,72926.0,-5.35,-6.19,-6.19,0,*54
1515632549.59,15132,11.63,72926.3,-5.35,-6.19,-6.27,0,*5A
1515632550.86,15133,11.63,72928.8,-5.33,-6.19,-6.19,0,*50
1515632552.11,15134,11.63,72924.3,-5.35,-6.19,-6.19,0,*51
1515632553.33,15135,11.63,72930.8,-5.35,-6.13,-6.19,0,*5A
1515632554.55,15136,11.63,72922.5,-5.33,-6.09,-6.13,0,*5E
1515632555.75,15137,11.63,72926.3,-5.35,-6.09,-6.13,0,*59
1515632556.94,15138,11.63,72934.0,-5.35,-6.13,-6.13,0,*5D
1515632558.16,15139,11.63,72930.3,-5.35,-6.13,-6.19,0,*56
1515632559.36,15140,11.63,72928.3,-5.35,-6.13,-6.13,0,*52
1515632560.57,15141,11.63,72930.5,-5.33,-6.13,-6.13,0,*55
1515632561.77,15142,11.63,72932.3,-5.35,-6.09,-6.13,0,*5B
1515632562.96,15143,11.63,72928.5,-5.35,-6.09,-6.09,0,*51
1515632564.18,15144,11.63,72926.5,-5.33,-6.01,-6.09,0,*58
1515632565.4,15145,11.63,72930.5,-5.33,-6.09,-6.09,0,*51
1515632566.62,15146,11.63,72926.3,-5.33,-5.97,-6.09,0,*56
1515632567.83,15147,11.63,72930.0,-5.33,-5.97,-6.09,0,*57
1515632569.05,15148,11.63,72930.3,-5.33,-5.97,-6.09,0,*58
1515632570.26,15149,11.63,72924.3,-5.33,-6.01,-6.13,0,*5E
1515632571.51,15150,11.63,72926.3,-5.33,-6.01,-6.19,0,*5C
1515632572.76,15151,11.63,72930.5,-5.31,-5.93,-6.09,0,*56
1515632573.99,15152,11.63,72924.8,-5.31,-6.09,-6.13,0,*5E
1515632575.22,15153,11.63,72932.8,-5.31,-6.09,-6.13,0,*5F
1515632576.47,15154,11.63,72934.0,-5.33,-6.09,-6.19,0,*50
1515632577.72,15155,11.63,72930.8,-5.33,-6.09,-6.19,0,*51
1515632578.94,15156,11.63,72930.3,-5.31,-5.97,-6.09,0,*55
1515632580.17,15157,11.63,72930.8,-5.31,-5.97,-6.09,0,*54
1515632581.39,15158,11.63,72934.5,-5.31,-6.09,-6.09,0,*5F
1515632582.61,15159,11.63,72936.3,-5.31,-6.05,-6.09,0,*52
1515632583.83,15160,11.63,72944.0,-5.31,-6.05,-6.09,0,*58
1515632585.06,15161,11.63,72932.5,-5.31,-6.09,-6.09,0,*55
1515632586.27,15162,11.63,72922.3,-5.29,-6.09,-6.09,0,*5F
1515632587.47,15163,11.63,72920.3,-5.29,-6.09,-6.13,0,*55
1515632588.7,15164,11.63,72934.0,-5.31,-6.09,-6.13,0,*5B
1515632589.95,15165,11.63,72926.5,-5.31,-6.13,-6.23,0,*52
1515632591.19,15166,11.63,72928.8,-5.31,-6.13,-6.23,0,*51
1515632592.47,15167,11.63,72928.0,-5.31,-6.23,-6.27,0,*57
1515632593.74,15168,11.63,72936.0,-5.31,-6.23,-6.27,0,*58
1515632594.99,15169,11.63,72938.8,-5.31,-6.27,-6.35,0,*5E
1515632596.26,15170,11.63,72936.3,-5.31,-6.27,-6.27,0,*55
1515632597.49,15171,11.63,72936.3,-5.31,-6.35,-6.39,0,*58
1515632598.74,15172,11.63,72940.8,-5.31,-6.27,-6.47,0,*51
1515632599.97,15173,11.63,72938.8,-5.31,-6.35,-6.39,0,*5A
1515632601.19,15174,11.63,72936.0,-5.31,-6.39,-6.39,0,*51
1515632602.42,15175,11.63,72936.8,-5.31,-6.35,-6.47,0,*55
1515632603.66,15176,11.63,72938.8,-5.31,-6.35,-6.35,0,*53
1515632604.89,15177,11.63,72934.3,-5.31,-6.35,-6.39,0,*5E
1515632606.1,15178,11.63,72932.5,-5.33,-6.39,-6.43,0,*52
1515632607.35,15179,11.63,72934.8,-5.31,-6.27,-6.35,0,*5F
1515632608.63,15180,11.63,72928.0,-5.31,-6.27,-6.27,0,*5A
1515632609.88,15181,11.63,72930.5,-5.29,-6.23,-6.27,0,*56
1515632611.1,15182,11.63,72922.0,-5.31,-6.13,-6.13,0,*58
1515632612.33,15183,11.63,72926.0,-5.31,-6.13,-6.13,0,*59
1515632613.55,15184,11.63,72922.5,-5.31,-6.09,-6.13,0,*55
1515632614.78,15185,11.63,72918.0,-5.31,-6.13,-6.13,0,*5F
1515632616.0,15186,11.63,72912.3,-5.31,-6.09,-6.05,0,*50
1515632617.21,15187,11.63,72918.8,-5.29,-6.09,-6.13,0,*5F
1515632618.41,15188,11.63,72916.5,-5.29,-6.09,-6.13,0,*50
1515632619.66,15189,11.63,72918.8,-5.31,-6.09,-6.23,0,*5B
1515632620.89,15190,11.63,72920.0,-5.31,-6.13,-6.13,0,*5B
1515632622.09,15191,11.63,72920.3,-5.29,-6.13,-6.13,0,*53
1515632623.29,15192,11.63,72920.8,-5.29,-6.13,-6.13,0,*50
1515632624.5,15193,11.63,72928.8,-5.29,-6.09,-6.13,0,*5A
1515632625.7,15194,11.63,72928.5,-5.29,-6.09,-6.13,0,*5D
1515632626.93,15195,11.63,72926.3,-5.31,-6.09,-6.13,0,*55
1515632628.13,15196,11.63,72922.3,-5.29,-6.09,-6.13,0,*5F
1515632629.33,15197,11.63,72922.0,-5.29,-6.05,-6.13,0,*52
1515632630.56,15198,11.63,72922.8,-5.31,-6.09,-6.13,0,*58
1515632631.76,15199,11.63,72914.3,-5.29,-6.09,-6.13,0,*50
1515632632.96,15200,11.63,72912.5,-5.29,-6.05,-6.13,0,*5F
1515632634.16,15201,11.63,72912.8,-5.29,-6.09,-6.13,0,*52
1515632635.37,15202,11.63,72912.3,-5.29,-6.09,-6.13,0,*51
1515632636.57,15203,11.63,72914.3,-5.29,-6.09,-6.13,0,*50
1515632637.79,15204,11.63,72910.5,-5.29,-6.13,-6.23,0,*5F
1515632639.0,15205,11.63,72916.8,-5.29,-6.13,-6.13,0,*5D
1515632640.22,15206,11.63,72922.8,-5.29,-6.13,-6.23,0,*5D
1515632641.45,15207,11.63,72926.5,-5.29,-6.13,-6.23,0,*5C
1515632642.7,15208,11.63,72930.3,-5.27,-6.09,-6.19,0,*5F
1515632643.93,15209,11.63,72932.3,-5.29,-6.13,-6.23,0,*52
1515632645.18,15210,11.63,72924.5,-5.27,-6.09,-6.19,0,*56
1515632646.38,15211,11.63,72924.8,-5.29,-6.13,-6.13,0,*58
1515632647.61,15212,11.63,72928.0,-5.29,-6.09,-6.23,0,*53
1515632648.83,15213,11.63,72926.8,-5.27,-6.05,-6.09,0,*58
1515632650.04,15214,11.63,72926.8,-5.27,-6.05,-6.09,0,*5F
1515632651.26,15215,11.63,72932.8,-5.27,-6.05,-6.09,0,*5E
1515632652.48,15216,11.63,72938.5,-5.27,-6.05,-6.09,0,*5D
1515632653.7,15217,11.63,72924.8,-5.27,-6.01,-6.05,0,*54
1515632654.92,15218,11.63,72928.3,-5.27,-6.01,-6.05,0,*5B
1515632656.12,15219,11.63,72920.8,-5.25,-6.01,-6.05,0,*58
1515632657.37,15220,11.63,72924.5,-5.27,-5.93,-6.05,0,*58
1515632658.62,15221,11.63,72922.8,-5.27,-5.93,-6.01,0,*5D
1515632659.87,15222,11.63,72926.0,-5.27,-5.93,-6.01,0,*5E
1515632661.12,15223,11.63,72920.3,-5.27,-5.93,-6.01,0,*5F
1515632662.37,15224,11.63,72918.8,-5.27,-5.93,-6.01,0,*58
1515632663.59,15225,11.63,72930.8,-5.25,-5.93,-6.01,0,*5B
1515632664.79,15226,11.63,72930.0,-5.25,-6.01,-6.05,0,*54
1515632665.99,15227,11.63,72924.5,-5.25,-6.01,-6.05,0,*55
1515632667.21,15228,11.63,72928.0,-5.27,-6.01,-6.09,0,*54
1515632668.41,15229,11.63,72930.0,-5.25,-6.01,-6.09,0,*57
1515632669.62,15230,11.63,72930.5,-5.27,-6.05,-6.09,0,*59
1515632670.84,15231,11.63,72918.5,-5.27,-6.05,-6.09,0,*58
1515632672.04,15232,11.63,72922.0,-5.21,-6.01,-6.05,0,*55
1515632673.23,15233,11.63,72914.0,-5.25,-6.05,-6.09,0,*58
1515632674.46,15234,11.63,72918.5,-5.25,-6.01,-6.19,0,*5A
1515632675.66,15235,11.63,72928.3,-5.25,-6.05,-6.09,0,*5E
1515632676.87,15236,11.63,72930.0,-5.27,-6.05,-6.09,0,*5F
1515632678.07,15237,11.63,72934.5,-5.21,-6.01,-6.05,0,*50
1515632679.26,15238,11.63,72934.5,-5.25,-6.05,-6.09,0,*53
1515632680.47,15239,11.63,72932.0,-5.25,-6.09,-6.09,0,*5E
1515632681.67,15240,11.63,72932.3,-5.25,-6.09,-6.09,0,*50
1515632682.87,15241,11.63,72938.8,-5.25,-6.09,-6.09,0,*51
1515632684.14,15242,11.63,72928.8,-5.27,-6.19,-6.19,0,*50
1515632685.34,15243,11.63,72928.0,-5.25,-6.09,-6.05,0,*5F
1515632686.57,15244,11.63,72936.5,-5.27,-6.09,-6.09,0,*56
1515632687.77,15245,11.63,72930.8,-5.25,-6.09,-6.09,0,*55
1515632688.97,15246,11.63,72926.5,-5.25,-6.09,-6.09,0,*56
1515632690.19,15247,11.63,72920.8,-5.27,-6.09,-6.09,0,*55
1515632691.38,15248,11.63,72920.0,-5.21,-6.05,-6.05,0,*5C
1515632692.58,15249,11.63,72916.0,-5.25,-6.09,-6.09,0,*59
1515632693.82,15250,11.63,72920.5,-5.25,-6.09,-6.19,0,*50
1515632695.01,15251,11.63,72914.0,-5.21,-6.05,-6.01,0,*50
1515632696.2,15252,11.63,72920.0,-5.21,-6.05,-6.01,0,*53
1515632697.4,15253,11.63,72922.0,-5.21,-6.01,-6.01,0,*56
1515632698.6,15254,11.63,72924.5,-5.21,-6.01,-6.01,0,*51
1515632699.8,15255,11.63,72922.5,-5.21,-6.01,-6.01,0,*50
1515632701.0,15256,11.63,72930.8,-5.21,-6.01,-6.01,0,*53
1515632702.2,15257,11.63,72934.3,-5.25,-6.09,-6.05,0,*5A
1515632703.39,15258,11.63,72926.3,-5.21,-6.05,-6.05,0,*5D
1515632704.58,15259,11.63,72926.0,-5.21,-6.05,-6.05,0,*5C
1515632705.78,15260,11.63,72926.5,-5.25,-6.09,-6.09,0,*52
1515632706.98,15261,11.63,72918.8,-5.21,-6.05,-6.05,0,*57
1515632708.17,15262,11.63,72916.8,-5.21,-6.05,-6.05,0,*54
1515632709.39,15263,11.63,72910.5,-5.19,-6.05,-6.05,0,*5E
1515632710.58,15264,11.63,72920.8,-5.21,-6.05,-6.05,0,*52
1515632711.77,15265,11.63,72922.3,-5.21,-6.05,-6.13,0,*54
1515632712.97,15266,11.63,72924.5,-5.21,-6.05,-6.05,0,*50
1515632714.16,15267,11.63,72924.5,-5.21,-6.05,-6.05,0,*51
1515632715.35,15268,11.63,72918.3,-5.21,-6.05,-6.05,0,*5E
1515632716.57,15269,11.63,72912.8,-5.19,-6.05,-6.05,0,*54
1515632717.77,15270,11.63,72920.5,-5.21,-6.13,-6.05,0,*50
1515632718.96,15271,11.63,72916.5,-5.21,-6.05,-6.05,0,*56
1515632720.15,15272,11.63,72914.8,-5.21,-6.05,-6.01,0,*51
1515632721.35,15273,11.63,72918.0,-5.21,-6.05,-6.01,0,*50
1515632722.54,15274,11.63,72918.0,-5.21,-6.05,-6.01,0,*57
1515632723.74,15275,11.63,72916.3,-5.21,-6.05,-6.01,0,*56
1515632724.96,15276,11.63,72916.8,-5.19,-6.05,-6.01,0,*5E
1515632726.15,15277,11.63,72918.5,-5.21,-6.13,-6.05,0,*57
1515632727.35,15278,11.63,72916.3,-5.21,-6.05,-6.05,0,*5F
1515632728.54,15279,11.63,72922.0,-5.21,-6.05,-6.05,0,*5E
1515632729.74,15280,11.63,72916.3,-5.21,-6.13,-6.13,0,*58
1515632730.93,15281,11.63,72920.8,-5.21,-6.05,-6.05,0,*59
1515632732.13,15282,11.63,72916.8,-5.21,-6.13,-6.05,0,*5D
1515632733.33,15283,11.63,72928.3,-5.21,-6.13,-6.13,0,*5B
1515632734.55,15284,11.63,72926.0,-5.19,-6.13,-6.05,0,*50
1515632735.74,15285,11.63,72926.0,-5.21,-6.05,-6.13,0,*5A
1515632736.93,15286,11.63,72920.3,-5.21,-6.05,-6.05,0,*5E
1515632738.13,15287,11.63,72924.3,-5.21,-6.13,-6.05,0,*58
1515632739.33,15288,11.63,72918.5,-5.21,-6.05,-6.05,0,*50
1515632740.52,15289,11.63,72922.8,-5.21,-6.05,-6.05,0,*51
1515632741.71,15290,11.63,72920.3,-5.21,-6.05,-6.13,0,*5E
1515632742.93,15291,11.63,72918.5,-5.19,-6.05,-6.05,0,*53
1515632744.15,15292,11.63,72926.3,-5.19,-6.05,-6.05,0,*50
1515632745.34,15293,11.63,72924.5,-5.21,-6.05,-6.05,0,*5A
1515632746.53,15294,11.63,72918.5,-5.21,-6.05,-6.05,0,*5D
1515632747.75,15295,11.63,72920.3,-5.19,-6.05,-6.01,0,*53
1515632748.94,15296,11.63,72924.0,-5.21,-6.05,-6.05,0,*5F
1515632750.14,15297,11.63,72928.5,-5.21,-6.05,-6.05,0,*5E
1515632751.35,15298,11.63,72920.0,-5.19,-6.05,-6.05,0,*5A
1515632752.57,15299,11.63,72926.3,-5.19,-6.05,-6.05,0,*5B
1515632753.79,15300,11.63,72934.3,-5.19,-6.05,-6.05,0,*5A
1515632754.98,15301,11.63,72930.3,-5.21,-6.05,-6.05,0,*50
1515632756.2,15302,11.63,72930.8,-5.19,-6.13,-6.05,0,*5F
1515632757.42,15303,11.63,72924.5,-5.19,-6.05,-6.05,0,*59
1515632758.63,15304,11.63,72924.5,-5.19,-6.05,-6.05,0,*5E
1515632759.85,15305,11.63,72924.8,-5.19,-6.05,-6.05,0,*5F
1515632761.06,15306,11.63,72922.0,-5.19,-6.05,-6.05,0,*5C
1515632762.26,15307,11.63,72924.5,-5.21,-6.05,-6.05,0,*56
1515632763.47,15308,11.63,72924.8,-5.19,-6.05,-6.05,0,*52
1515632764.69,15309,11.63,72924.3,-5.19,-6.13,-6.05,0,*54
1515632765.91,15310,11.56,72922.3,-5.19,-6.05,-6.05,0,*5B
1515632767.13,15311,11.63,72924.3,-5.19,-6.13,-6.13,0,*5A
1515632768.35,15312,11.63,72920.8,-5.19,-6.13,-6.13,0,*59
1515632769.57,15313,11.63,72918.5,-5.19,-6.13,-6.13,0,*58
1515632770.79,15314,11.63,72922.5,-5.19,-6.13,-6.13,0,*5F
1515632772.01,15315,11.63,72926.3,-5.19,-6.13,-6.13,0,*5E
1515632773.21,15316,11.63,72924.3,-5.21,-6.13,-6.13,0,*56
1515632774.46,15317,11.63,72926.0,-5.19,-6.19,-6.13,0,*56
1515632775.74,15318,11.63,72928.8,-5.19,-6.19,-6.19,0,*53
1515632776.99,15319,11.63,72932.8,-5.21,-6.27,-6.19,0,*54
1515632778.24,15320,11.63,72928.5,-5.21,-6.19,-6.19,0,*53
1515632779.49,15321,11.63,72930.3,-5.21,-6.19,-6.19,0,*52
1515632780.77,15322,11.63,72928.5,-5.19,-6.27,-6.19,0,*57
1515632782.01,15323,11.63,72926.5,-5.21,-6.27,-6.27,0,*50
1515632783.26,15324,11.63,72922.0,-5.21,-6.27,-6.19,0,*5A
1515632784.54,15325,11.63,72920.0,-5.19,-6.19,-6.19,0,*5D
1515632785.76,15326,11.63,72918.3,-5.19,-6.13,-6.05,0,*59
1515632786.98,15327,11.63,72916.0,-5.19,-6.13,-6.05,0,*58
1515632788.2,15328,11.63,72920.5,-5.19,-6.13,-6.05,0,*57
1515632789.42,15329,11.63,72922.0,-5.19,-6.13,-6.13,0,*51
1515632790.62,15330,11.63,72920.5,-5.21,-6.13,-6.13,0,*52
1515632791.83,15331,11.63,72920.3,-5.19,-6.05,-6.05,0,*58
1515632793.05,15332,11.63,72920.8,-5.19,-6.13,-6.13,0,*5B
1515632794.28,15333,11.63,72920.8,-5.19,-6.13,-6.13,0,*5A
1515632795.47,15334,11.63,72918.5,-5.21,-6.13,-6.13,0,*56
1515632796.72,15335,11.63,72922.8,-5.19,-6.13,-6.19,0,*56
1515632797.98,15336,11.63,72924.3,-5.21,-6.19,-6.19,0,*54
1515632799.2,15337,11.63,72922.3,-5.21,-6.05,-6.19,0,*58
1515632800.45,15338,11.63,72916.8,-5.19,-6.05,-6.19,0,*5C
1515632801.67,15339,11.63,72918.5,-5.19,-6.13,-6.13,0,*50
1515632802.95,15340,11.63,72920.5,-5.19,-6.19,-6.19,0,*5E
1515632804.19,15341,11.63,72918.0,-5.19,-6.27,-6.13,0,*58
1515632805.44,15342,11.63,72920.3,-5.19,-6.19,-6.13,0,*56
1515632806.72,15343,11.63,72918.3,-5.19,-6.19,-6.19,0,*5D
1515632807.99,15344,11.63,72918.0,-5.19,-6.19,-6.19,0,*5A
1515632809.24,15345,11.63,72922.5,-5.19,-6.19,-6.13,0,*51
1515632810.52,15346,11.63,72914.0,-5.19,-6.19,-6.19,0,*58
1515632811.77,15347,11.63,72910.3,-5.19,-6.13,-6.19,0,*53
1515632813.02,15348,11.63,72914.5,-5.19,-6.13,-6.19,0,*5C
1515632814.27,15349,11.63,72908.5,-5.19,-6.13,-6.19,0,*5D
1515632815.55,15350,11.63,72908.3,-5.19,-6.19,-6.19,0,*5F
1515632816.83,15351,11.63,72904.3,-5.19,-6.19,-6.27,0,*53
1515632818.1,15352,11.63,72904.5,-5.19,-6.19,-6.27,0,*50
1515632819.37,15353,11.63,72910.3,-5.19,-6.19,-6.27,0,*51
1515632820.64,15354,11.63,72906.3,-5.19,-6.27,-6.27,0,*5B
1515632821.92,15355,11.63,72914.3,-5.19,-6.19,-6.19,0,*5A
1515632823.19,15356,11.63,72920.5,-5.19,-6.19,-6.27,0,*54
1515632824.47,15357,11.63,72914.3,-5.19,-6.19,-6.19,0,*58
1515632825.74,15358,11.63,72914.0,-5.19,-6.19,-6.27,0,*5A
1515632826.99,15359,11.63,72908.8,-5.19,-6.13,-6.27,0,*51
1515632828.24,15360,11.63,72914.3,-5.21,-6.19,-6.27,0,*5A
1515632829.5,15361,11.63,72912.0,-5.19,-6.19,-6.31,0,*57
1515632830.75,15362,11.63,72918.0,-5.19,-6.19,-6.31,0,*54
1515632832.0,15363,11.63,72920.0,-5.19,-6.27,-6.31,0,*58
1515632833.25,15364,11.63,72922.5,-5.19,-6.27,-6.31,0,*5F
1515632834.49,15365,11.63,72922.3,-5.21,-6.27,-6.27,0,*52
1515632835.76,15366,11.63,72922.5,-5.19,-6.27,-6.27,0,*5A
1515632837.03,15367,11.56,72912.3,-5.19,-6.27,-6.27,0,*5B
1515632838.28,15368,11.63,72922.0,-5.21,-6.19,-6.27,0,*52
1515632839.56,15369,11.56,72912.5,-5.19,-6.19,-6.19,0,*55
1515632840.8,15370,11.63,72916.0,-5.19,-6.27,-6.31,0,*5A
1515632842.08,15371,11.63,72912.0,-5.19,-6.19,-6.27,0,*51
1515632843.35,15372,11.63,72914.8,-5.19,-6.19,-6.27,0,*52
1515632844.6,15373,11.63,72924.0,-5.21,-6.27,-6.19,0,*58
1515632845.88,15374,11.63,72914.8,-5.19,-6.19,-6.27,0,*54
1515632847.13,15375,11.63,72916.3,-5.21,-6.19,-6.27,0,*5E
1515632848.37,15376,11.63,72916.0,-5.21,-6.27,-6.27,0,*50
1515632849.65,15377,11.63,72918.8,-5.19,-6.19,-6.27,0,*57
1515632850.9,15378,11.63,72918.0,-5.21,-6.19,-6.19,0,*5E
1515632852.13,15379,11.63,72916.0,-5.21,-6.13,-6.27,0,*58
1515632853.36,15380,11.63,72918.5,-5.21,-6.13,-6.19,0,*53
1515632854.58,15381,11.63,72914.5,-5.21,-6.13,-6.19,0,*52
1515632855.8,15382,11.63,72918.5,-5.21,-6.05,-6.27,0,*5B
1515632857.06,15383,11.63,72916.0,-5.21,-6.19,-6.27,0,*57
1515632858.3,15384,11.63,72922.8,-5.19,-6.13,-6.27,0,*51
1515632859.53,15385,11.63,72920.0,-5.21,-6.13,-6.27,0,*5B
1515632860.76,15386,11.63,72916.8,-5.21,-6.13,-6.19,0,*55
1515632862.01,15387,11.63,72924.5,-5.19,-6.13,-6.19,0,*5F
1515632863.24,15388,11.63,72918.8,-5.21,-6.13,-6.19,0,*5B
1515632864.51,15389,11.63,72928.0,-5.19,-6.19,-6.27,0,*56
1515632865.78,15390,11.63,72918.3,-5.19,-6.19,-6.27,0,*5E
1515632867.03,15391,11.63,72918.3,-5.19,-6.27,-6.39,0,*5D
1515632868.25,15392,11.63,72920.8,-5.21,-6.27,-6.31,0,*5D
1515632869.51,15393,11.63,72918.3,-5.21,-6.19,-6.19,0,*5B
1515632870.75,15394,11.63,72920.3,-5.19,-6.05,-6.19,0,*5A
1515632872.0,15395,11.63,72922.8,-5.19,-6.13,-6.27,0,*51
1515632873.25,15396,11.63,72926.0,-5.21,-6.19,-6.27,0,*53
1515632874.5,15397,11.63,72924.5,-5.21,-6.19,-6.27,0,*52
1515632875.78,15398,11.63,72926.3,-5.19,-6.19,-6.27,0,*56
1515632877.05,15399,11.63,72920.0,-5.19,-6.19,-6.27,0,*57
1515632878.31,15400,11.63,72920.5,-5.21,-6.19,-6.19,0,*56
1515632879.53,15401,11.63,72920.3,-5.21,-6.13,-6.27,0,*50
1515632880.76,15402,11.63,72920.5,-5.21,-6.13,-6.19,0,*5E
1515632881.98,15403,11.63,72918.3,-5.21,-6.13,-6.27,0,*52
1515632883.23,15404,11.63,72920.3,-5.19,-6.05,-6.19,0,*54
1515632884.48,15405,11.63,72924.3,-5.19,-6.13,-6.19,0,*52
1515632885.71,15406,11.63,72924.3,-5.21,-6.13,-6.19,0,*5A
1515632886.97,15407,11.63,72926.5,-5.21,-6.19,-6.19,0,*51
1515632888.21,15408,11.63,72924.5,-5.19,-6.13,-6.27,0,*52
1515632889.47,15409,11.63,72924.8,-5.19,-6.13,-6.19,0,*5E
1515632890.72,15410,11.63,72926.8,-5.19,-6.13,-6.19,0,*56
1515632891.97,15411,11.63,72926.5,-5.19,-6.13,-6.19,0,*57
1515632893.22,15412,11.63,72922.3,-5.19,-6.05,-6.19,0,*53
1515632894.47,15413,11.63,72926.5,-5.19,-6.13,-6.19,0,*55
1515632895.71,15414,11.63,72920.5,-5.19,-6.05,-6.19,0,*55
1515632896.94,15415,11.63,72918.0,-5.21,-6.13,-6.19,0,*58
1515632898.17,15416,11.63,72912.5,-5.21,-6.05,-6.19,0,*5C
1515632899.38,15417,11.63,72910.3,-5.19,-6.05,-6.05,0,*5B
1515632900.6,15418,11.63,72908.3,-5.19,-6.01,-6.05,0,*50
1515632901.82,15419,11.63,72906.0,-5.19,-6.01,-6.13,0,*56
1515632903.04,15420,11.63,72908.5,-5.19,-6.01,-6.05,0,*5B
1515632904.24,15421,11.63,72904.3,-5.21,-6.01,-6.05,0,*51
1515632905.46,15422,11.63,72908.5,-5.19,-6.01,-6.13,0,*5E
1515632906.68,15423,11.63,72906.8,-5.19,-6.01,-6.05,0,*58